Location: Berlin-Friedrichshain
(52.5145°N, 13.4521°E)
Time: 21:41:18
(UTC+00:00)

Daily predictions for brighter satellites

Satellite Brightness Start Highest point End
(mag) Time Altitude Azimuth Time Altitude Azimuth Time Altitude Azimuth
Cosmos 1634 Rocket 4.1 19:45:30 10° N 19:51:50 71° ENE 19:58:08 10° SSE
Cosmos 1544 3.1 19:51:22 10° N 19:55:03 83° ENE 19:58:42 10° SSE
STARLINK-1112 3.7 19:51:54 10° W 19:56:04 87° N 20:00:14 10° E
Cosmos 2082 Rocket 2.9 19:50:44 10° NNW 19:56:17 46° NE 20:01:46 10° ESE
SAR-Lupe-2 4.1 19:53:44 10° NNE 19:57:11 41° E 20:00:36 10° S
Landsat 7 3.9 19:53:28 10° SSE 19:58:12 74° ENE 20:02:59 10° NNW
STARLINK-1124 3.7 19:54:39 10° W 19:58:49 88° N 20:02:59 10° E
Cosmos 1954 Rocket 4.1 19:54:04 10° NNW 19:59:20 72° ENE 20:04:36 10° SSE
Cosmos 2151 Rocket 4.4 19:56:40 10° N 20:00:56 39° ENE 20:05:10 10° SE
STARLINK-1128 3.7 19:56:53 10° W 20:01:03 86° N 20:05:13 10° E
STARLINK-1088 4.0 19:57:23 10° WNW 20:01:25 52° SSW 20:05:27 10° SE
STARLINK-1122 3.6 19:59:38 10° W 20:03:48 90° WNW 20:07:58 10° E
Cosmos 1833 Rocket 2.8 19:59:40 10° NNW 20:05:19 74° ENE 20:10:56 10° SE
SeaSat 1 4.3 20:04:11 10° ENE 20:05:57 12° E 20:07:45 10° ESE
ERS-1 Rocket 3.2 20:01:03 10° SSE 20:05:58 58° ENE 20:10:56 10° N
STARLINK-1113 3.7 20:01:52 10° W 20:06:01 85° N 20:10:11 10° E
STARLINK-1115 4.0 20:02:22 10° WNW 20:06:23 49° SSW 20:10:23 10° SE
Cosmos 1975 3.1 20:03:02 10° NNW 20:07:06 70° W 20:11:08 10° S
STARLINK-1126 3.6 20:04:34 10° W 20:08:44 88° SSW 20:12:54 10° ESE
STARLINK-1119 3.7 20:06:51 10° W 20:11:00 84° N 20:15:10 10° E
CZ-2C R/B 3.6 20:05:37 10° N 20:11:03 55° WNW 20:16:31 10° SW
STARLINK-1076 4.1 20:07:21 10° WNW 20:11:21 47° SSW 20:15:19 10° SE
Meteor 2-9 Rocket 4.3 20:05:57 10° NNW 20:11:25 74° W 20:16:44 10° S
Spot 2 Rocket 3.7 20:06:23 10° S 20:11:25 75° WSW 20:16:30 10° NNW
Tsikada Rocket 4.1 20:05:22 10° SSW 20:11:35 82° WNW 20:17:47 10° N
Cosmos 676 Rocket 4.1 20:06:47 10° NNW 20:12:03 90° NE 20:17:20 10° SSE
STARLINK-1082 3.6 20:09:36 10° W 20:13:46 87° SSW 20:17:56 10° ESE
GENESIS II 4.3 20:11:43 10° NW 20:15:47 77° SW 20:19:36 11° SE
STARLINK-1206 4.4 20:12:19 10° SSW 20:15:53 29° SE 20:19:30 10° E
STARLINK-1114 3.7 20:11:51 10° W 20:16:00 83° N 20:20:10 10° E
STARLINK-1092 4.2 20:12:19 10° W 20:16:17 44° SSW 20:20:06 11° SE
STARLINK-1100 3.6 20:14:34 10° W 20:18:44 84° SSW 20:22:54 10° ESE
Cosmos 389 Rocket 3.7 20:15:29 10° SW 20:18:49 44° WNW 20:22:12 10° N
SL-4 R/B 1.9 20:15:37 10° NNW 20:18:50 49° NE 20:21:42 11° ESE
Cosmos 2056 Rocket 3.4 20:15:17 10° SSW 20:20:21 68° ESE 20:25:27 10° NNE
STARLINK-1205 4.4 20:17:11 10° SSW 20:20:50 31° SE 20:24:30 10° E
STARLINK-1130 (DARKSAT) 3.7 20:16:48 10° W 20:20:58 83° N 20:25:08 10° E
Okean 1 4.3 20:17:11 10° SSW 20:21:08 51° WNW 20:25:08 10° N
STARLINK-1080 4.3 20:17:21 10° W 20:21:17 42° SSW 20:24:54 12° SE
STARLINK-1083 3.6 20:19:33 10° W 20:23:42 82° SSW 20:27:52 10° ESE
ISS -3.7 20:21:30 10° W 20:24:51 66° SSW 20:28:12 10° ESE
STARLINK-1218 4.3 20:22:04 10° SSW 20:25:47 32° SE 20:29:30 10° E
STARLINK-1084 3.7 20:21:48 10° W 20:25:57 82° N 20:30:07 10° E
STARLINK-1090 4.3 20:22:20 10° W 20:26:14 40° SSW 20:29:41 12° SE
STARLINK-1125 3.6 20:24:33 10° WNW 20:28:42 80° SSW 20:32:51 10° ESE
Meteor 1-19 Rocket 4.4 20:23:17 10° SSW 20:28:53 78° WNW 20:34:42 10° NNE
STARLINK-1254 4.2 20:26:59 10° SSW 20:30:44 34° SSE 20:34:31 10° E
STARLINK-1098 3.7 20:26:48 10° W 20:30:57 82° N 20:35:07 10° E
STARLINK-1089 4.4 20:27:20 10° W 20:31:11 37° SSW 20:34:28 13° SSE
STARLINK-67 1.7 20:29:23 10° W 20:31:21 77° N 20:33:19 10° E
SL-8 R/B 3.9 20:27:07 10° WSW 20:31:46 49° S 20:36:25 10° E
CARTOSAT-1 3.6 20:28:14 10° SSE 20:32:30 87° ENE 20:36:52 10° NNW
Cosmos 2278 Rocket 2.4 20:27:53 10° S 20:33:23 52° ESE 20:38:54 10° NE
STARLINK-1109 3.6 20:29:31 10° WNW 20:33:40 78° SSW 20:37:48 10° ESE
STARLINK-1231 4.1 20:31:53 10° SW 20:35:42 36° SSE 20:39:32 10° E
STARLINK-1123 3.7 20:31:46 10° W 20:35:55 82° N 20:40:06 10° E
STARLINK-1107 4.5 20:32:20 10° W 20:36:08 35° SSW 20:39:15 14° SSE
Meteor 1-12 Rocket 4.3 20:31:51 10° NNW 20:37:32 82° W 20:43:12 10° S
STARLINK-1091 3.6 20:34:29 10° WNW 20:38:38 75° SSW 20:42:46 10° ESE
Cosmos 1437 Rocket 3.5 20:37:00 13° SSE 20:39:53 34° E 20:43:22 10° NNE
Lacrosse 5 1.9 20:35:06 10° WNW 20:40:11 77° SSW 20:44:51 12° SE
STARLINK-1232 4.1 20:36:48 10° SW 20:40:39 39° SSE 20:44:32 10° E
STARLINK-1097 3.7 20:36:45 10° W 20:40:54 82° N 20:45:05 10° E
NOSS 2-3 (E) 3.7 20:37:29 10° SW 20:41:52 75° SE 20:47:13 10° NE
Terra 1.9 20:38:31 13° SSE 20:42:48 75° ENE 20:47:34 10° NNW
STARLINK-1072 3.6 20:39:29 10° WNW 20:43:37 72° SSW 20:47:37 11° ESE
Cosmos 1844 Rocket 4.1 20:38:48 10° WSW 20:44:11 43° NW 20:49:36 10° NNE
STARLINK-1208 4.0 20:41:42 10° SW 20:45:36 41° SSE 20:49:30 10° E
STARLINK-1099 3.7 20:41:43 10° W 20:45:52 83° N 20:50:02 10° E
STARLINK-1228 2.9 20:42:52 10° WSW 20:46:10 69° SSE 20:49:29 10° E
STARLINK-1096 3.6 20:44:29 10° WNW 20:48:37 70° SSW 20:52:26 12° ESE
STARLINK-1234 2.8 20:46:40 10° WSW 20:49:46 68° SSE 20:52:53 10° E
Cosmos 1300 Rocket 3.9 20:45:46 10° NNW 20:50:11 65° W 20:54:26 11° S
STARLINK-1271 3.9 20:46:38 10° SW 20:50:34 43° SSE 20:54:31 10° E
STARLINK-1104 3.7 20:46:42 10° W 20:50:52 83° N 20:55:02 10° E
STARLINK-1212 2.8 20:48:05 10° WSW 20:51:09 58° SSE 20:54:12 10° E
Cosmos 1452 Rocket 3.8 20:46:18 10° S 20:51:21 49° ESE 20:56:28 10° NE
STARLINK-1209 2.8 20:48:24 10° WSW 20:51:32 71° SSE 20:54:41 10° E
STARLINK-1105 2.8 20:48:33 10° WSW 20:51:37 59° SSE 20:54:41 10° E
STARLINK-1247 2.8 20:49:27 10° WSW 20:52:31 59° SSE 20:55:37 10° E
Cosmos 2084 Rocket 4.3 20:48:27 10° WSW 20:52:42 56° NW 20:57:03 10° NE
STARLINK-1227 2.8 20:49:55 10° WSW 20:52:59 60° SSE 20:56:02 10° E
Crew Dragon 0.4 20:51:17 10° W 20:53:21 41° SSW 20:54:14 26° SE
Okean 3 3.7 20:49:06 10° SSW 20:53:23 72° WNW 20:57:43 10° N
STARLINK-1079 3.6 20:49:25 10° WNW 20:53:33 67° SSW 20:57:10 13° ESE
STARLINK-1226 2.8 20:50:46 10° WSW 20:53:50 60° SSE 20:56:55 10° E
STARLINK-1215 2.8 20:51:42 10° WSW 20:54:47 61° SSE 20:57:52 10° E
STARLINK-1154 3.8 20:51:34 10° SW 20:55:32 46° SSE 20:59:31 10° E
STARLINK-1144 3.7 20:51:42 10° W 20:55:51 84° N 21:00:02 10° E
STARLINK-1217 2.8 20:53:27 10° WSW 20:56:33 62° SSE 20:59:38 10° E
STARLINK-1229 2.8 20:54:23 10° WSW 20:57:28 63° SSE 21:00:34 10° E
Cosmos 1420 Rocket 3.9 20:52:53 10° SSW 20:58:04 75° ESE 21:03:16 10° NNE
STARLINK-1270 2.8 20:55:14 10° WSW 20:58:19 63° SSE 21:01:26 10° E
STARLINK-1116 3.6 20:54:25 10° WNW 20:58:32 64° SSW 21:01:58 14° ESE
STARLINK-1189 2.8 20:57:04 10° WSW 21:00:10 65° SSE 21:03:15 10° E
Cosmos 2221 Rocket 4.0 20:55:49 10° SSW 21:00:18 67° WNW 21:04:51 10° N
Cosmos 1766 4.3 20:56:46 10° N 21:00:26 35° ENE 21:03:05 16° SE
STARLINK-1197 3.8 20:56:29 10° SW 21:00:29 48° SSE 21:04:30 10° ENE
MTI 4.0 20:57:33 10° NNE 21:00:36 47° E 21:02:33 19° SSE
COSMOS 2406 4.4 20:55:29 10° NW 21:00:39 35° WSW 21:05:48 10° S
STARLINK-1103 3.6 20:56:41 10° W 21:00:51 84° N 21:05:00 10° E
STARLINK-1188 2.8 20:57:57 10° WSW 21:01:02 65° SSE 21:04:08 10° E
STARLINK-1235 2.7 20:58:37 10° WSW 21:01:42 74° SSE 21:04:48 10° E
NOSS 2-3 (D) 3.8 20:57:23 10° SW 21:01:49 87° NW 21:07:15 10° NE
STARLINK-1187 2.7 20:59:03 10° WSW 21:02:08 70° SSE 21:05:13 10° E
Meteor 1-13 Rocket 4.2 20:57:36 10° S 21:03:12 88° ESE 21:08:57 10° NNE
STARLINK-1191 2.7 21:00:25 10° WSW 21:03:30 67° SSE 21:06:36 10° E
STARLINK-1221 2.7 21:01:18 10° WSW 21:04:23 67° SSE 21:07:28 10° E
Cosmos 371 Rocket 3.4 21:00:13 10° S 21:04:59 61° ESE 21:09:48 10° NNE
USA 215 3.3 20:58:40 10° ESE 21:05:15 83° SSW 21:11:50 10° WNW
STARLINK-1222 2.7 21:02:10 10° WSW 21:05:15 68° SSE 21:08:22 10° E
STARLINK-1198 3.7 21:01:24 10° SW 21:05:25 51° SSE 21:09:27 10° ENE
STARLINK-1101 3.6 21:01:39 10° W 21:05:49 85° N 21:09:59 10° E
Meteor 1-23 Rocket 4.4 21:01:01 14° S 21:05:54 56° E 21:11:26 10° NNE
STARLINK-1214 2.7 21:03:06 10° WSW 21:06:11 69° SSE 21:09:16 10° E
Resurs 01 Rocket 4.3 21:04:06 10° WSW 21:06:14 13° W 21:08:23 10° WNW
Meteor 2-4 Rocket 4.1 21:01:24 10° SSW 21:06:44 61° WNW 21:12:03 10° N
Cosmos 1461 4.4 21:06:45 17° SE 21:07:47 18° ESE 21:10:45 10° ENE
Abrixas rocket 2.5 21:05:30 10° WSW 21:08:15 36° S 21:09:45 21° ESE
STARLINK-1094 3.7 21:04:24 10° WNW 21:08:29 58° SSW 21:11:32 17° SE
Cosmos 1674 Rocket 3.5 21:04:49 14° S 21:08:31 72° E 21:12:54 10° NNE
STARLINK-1199 3.7 21:06:23 10° SW 21:10:24 53° SSE 21:14:29 10° ENE
STARLINK-1102 3.6 21:06:40 10° W 21:10:49 87° N 21:14:59 10° E
deb Kosmos-1763 4.3 21:08:29 10° NNW 21:12:04 61° ENE 21:14:21 21° SE
Meteor 1-4 Rocket 4.5 21:09:47 10° SW 21:12:48 27° WNW 21:15:48 10° N
USA 229 DEB 4.3 21:06:28 10° WSW 21:13:02 62° NW 21:20:02 10° NE
USA 229 4.3 21:06:35 10° WSW 21:13:09 62° NW 21:20:08 10° NE
STARLINK-1117 3.8 21:09:22 10° WNW 21:13:26 56° SSW 21:16:19 18° SE
STARLINK-1210 3.6 21:11:18 10° SW 21:15:22 56° SSE 21:19:26 10° ENE
STARLINK-1111 3.6 21:11:38 10° W 21:15:48 88° N 21:19:57 10° E
Cosmos 1378 Rocket 3.6 21:12:35 16° S 21:15:59 67° E 21:20:22 10° NNE
NOSS 3 (A) 4.3 21:14:17 10° SW 21:16:58 72° SE 21:20:08 10° NE
SPOT 5 3.8 21:12:28 11° S 21:17:07 47° W 21:22:16 10° NNW
STARLINK-1078 3.8 21:14:21 10° WNW 21:18:24 53° SSW 21:21:05 20° SE
Nadezhda 4 Rocket 4.0 21:13:37 14° S 21:18:58 71° E 21:25:06 10° NNE
Cosmos 1733 3.9 21:16:33 10° N 21:20:15 42° ENE 21:22:28 21° SE
STARLINK-1219 3.6 21:16:15 10° SW 21:20:20 59° SSE 21:24:26 10° ENE
Cosmos 1741 Rocket 4.2 21:15:32 10° NNW 21:20:43 66° WSW 21:24:31 18° S
STARLINK-1073 3.6 21:16:37 10° W 21:20:47 89° N 21:24:57 10° E
NOSS 3-1 (C) 4.4 21:15:25 10° WSW 21:21:06 53° NNW 21:27:52 10° NE
NOSS 3-1 (A) 3.9 21:16:12 10° WSW 21:21:55 67° NW 21:28:44 10° NE
ATLAS CENTAUR R/B 2.8 21:20:48 10° WNW 21:22:24 22° N 21:24:02 10° NE
STARLINK-1108 3.9 21:19:20 10° WNW 21:23:21 50° SSW 21:25:52 21° SE
ATLAS 3B R/B 4.1 21:18:44 10° NW 21:24:53 37° NNE 21:31:11 10° E
STARLINK-1211 3.6 21:21:11 10° WSW 21:25:17 62° SSE 21:29:23 10° ENE
STARLINK-1121 3.6 21:21:35 10° W 21:25:45 89° S 21:29:54 10° ESE
Cosmos 1975 Rocket 4.0 21:23:46 20° SE 21:26:10 33° E 21:30:10 10° NNE
STARLINK-1071 3.9 21:24:19 10° WNW 21:28:19 48° SSW 21:30:39 22° SE
CENTAUR R/B 3.7 21:21:41 10° NW 21:29:06 55° NNE 21:37:31 10° ESE
Cosmos 2297 4.1 21:25:26 17° S 21:29:27 45° ESE 21:34:52 10° NE
STARLINK-1245 3.5 21:26:10 10° WSW 21:30:16 65° SSE 21:34:23 10° ENE
STARLINK-1106 3.5 21:26:34 10° W 21:30:44 87° SSW 21:34:53 10° ESE
BREEZE-M DEB (TANK) 4.4 21:18:49 10° WNW 21:32:15 48° SW 21:35:39 20° SSE
STARLINK-1110 4.0 21:28:31 10° W 21:32:30 46° SSW 21:34:41 23° SSE
STARLINK-1138 4.5 21:30:58 20° S 21:32:53 28° SE 21:36:27 10° E
STARLINK-1203 4.4 21:32:36 17° SSW 21:35:04 30° SE 21:38:44 10° E
STARLINK-1233 3.5 21:31:06 10° WSW 21:35:14 67° SSE 21:39:22 10° ENE
STARLINK-1112 3.5 21:31:33 10° W 21:35:43 85° SSW 21:39:53 10° ESE
ERBS 2.4 21:33:13 10° SW 21:36:26 49° SE 21:39:40 10° ENE
STARLINK-1143 4.4 21:35:45 19° S 21:37:50 30° SE 21:41:28 10° E
STARLINK-1124 4.1 21:34:18 10° W 21:38:15 43° SSW 21:40:13 25° SSE
Cosmos 1242 Rocket 4.4 21:37:35 16° ESE 21:38:46 18° E 21:41:21 10° NE
STARLINK-1204 3.5 21:36:05 10° WSW 21:40:12 70° SSE 21:44:21 10° ENE
Cosmos 2082 Rocket 3.0 21:35:01 10° NW 21:40:21 41° WSW 21:44:18 17° S
STARLINK-1128 3.5 21:36:33 10° W 21:40:42 83° SSW 21:44:50 10° ESE
STARLINK-1241 4.3 21:40:29 19° SSW 21:42:47 32° SE 21:46:29 10° E
Cosmos 1470 3.9 21:39:36 10° N 21:43:09 33° ENE 21:45:16 19° ESE
STARLINK-1122 4.2 21:39:18 10° W 21:43:12 40° SSW 21:45:00 26° SSE
Okean 1 Rocket 3.7 21:39:25 10° NNW 21:43:46 50° W 21:46:51 18° SSW
SeaSat 1 2.5 21:39:26 10° NE 21:44:22 65° ESE 21:48:18 16° SSW
STARLINK-1238 3.5 21:41:01 10° WSW 21:45:09 73° SSE 21:49:18 10° ENE
STARLINK-1113 3.5 21:41:31 10° WNW 21:45:41 81° SSW 21:49:36 11° ESE
Cosmos 1110 Rocket 4.1 21:43:28 20° S 21:46:59 57° ESE 21:52:04 10° NNE
STARLINK-1239 4.2 21:45:15 18° SSW 21:47:43 34° SSE 21:51:29 10° E
STARLINK-1126 4.2 21:44:15 10° W 21:48:07 38° SSW 21:49:45 26° SSE
Cosmos 1833 Rocket 4.3 21:44:21 10° NW 21:48:43 24° WSW 21:52:51 11° SSW
STARLINK-1201 3.5 21:46:00 10° WSW 21:50:09 76° SSE 21:54:18 10° ENE
STARLINK-1119 3.5 21:46:30 10° WNW 21:50:39 78° SSW 21:54:23 13° ESE
NOSS 2-2 (C) 4.3 21:50:29 24° SE 21:50:57 25° ESE 21:54:15 10° ENE
Cosmos 1805 3.5 21:47:22 10° NNW 21:51:16 62° W 21:53:26 24° S
SL-4 R/B 3.4 21:49:29 10° WNW 21:51:37 17° WSW 21:52:33 15° SW
EO 1 Del DPAF 3.2 21:47:56 10° NNE 21:51:44 64° ESE 21:53:37 27° S
Aureole 2 Rocket 2.1 21:51:13 32° S 21:52:26 62° ESE 21:55:30 10° NNE
STARLINK-1240 4.1 21:50:02 17° SSW 21:52:40 36° SSE 21:56:29 10° E
BREEZE-M DEB (TANK) 4.4 21:38:00 10° W 21:52:58 61° SSW 21:56:23 17° SE
STARLINK-1082 4.3 21:49:18 10° W 21:53:07 36° SSW 21:54:34 27° S
Cosmos 304 Rocket 3.7 21:50:10 17° SSW 21:53:48 79° ESE 21:58:37 10° NNE
Cosmos 968 Rocket 4.4 21:49:02 10° NNW 21:54:00 43° NE 21:58:02 15° ESE
STARLINK-1206 3.5 21:50:59 10° WSW 21:55:07 78° SSE 21:59:17 10° ENE
NOSS 3-2 (A) 4.0 21:48:04 10° NW 21:55:22 85° NE 22:02:51 13° SE
STARLINK-1114 3.5 21:51:29 10° WNW 21:55:38 76° SSW 21:59:11 14° ESE
Okean 2 3.4 21:53:51 26° S 21:56:03 67° E 22:00:11 10° NNE
Cosmos 1455 Rocket 3.1 21:52:22 10° N 21:56:46 73° ENE 21:59:07 26° SSE
Cosmos 1092 Rocket 3.9 21:52:19 19° S 21:56:56 84° E 22:03:07 10° NNE
STARLINK-1216 4.1 21:54:48 16° SSW 21:57:37 38° SSE 22:01:29 10° E
Cosmos 332 Rocket 4.1 21:52:51 10° SW 21:57:45 69° WNW 22:02:40 10° NNE
STARLINK-1100 4.4 21:54:17 10° W 21:58:03 34° SSW 21:59:21 27° S
Cosmos 2369 Rocket 3.3 21:57:14 20° SE 21:59:41 28° ESE 22:04:25 10° NE
Helios 1A 4.2 21:57:21 17° ESE 21:59:59 34° ENE 22:03:47 10° N
STARLINK-1205 3.5 21:55:57 10° WSW 22:00:06 80° SSE 22:04:16 10° ENE
STARLINK-1130 (DARKSAT) 3.5 21:56:27 10° WNW 22:00:35 73° SSW 22:03:56 15° ESE
ISS -2.5 21:58:28 10° W 22:01:18 25° SSW 22:01:21 25° SSW
STARLINK-1237 4.0 21:59:34 15° SW 22:02:35 40° SSE 22:06:29 10° E
USA 238 DEB 3.8 21:55:31 10° NW 22:02:42 90° NNE 22:08:58 16° SE
USA 238 3.8 21:55:37 10° NW 22:02:48 89° NE 22:09:06 15° SE
Cosmos 1486 Rocket 4.4 21:57:32 10° NNW 22:02:50 60° ENE 22:06:31 19° SE
STARLINK-1083 4.5 21:59:17 10° W 22:03:00 32° SW 22:04:08 27° S
STARLINK-67 3.3 22:01:25 10° W 22:02:31 27° W 22:02:31 27° W
Cosmos 1378 3.4 22:02:30 22° SSW 22:04:44 64° WNW 22:08:27 10° N
STARLINK-1218 3.5 22:00:55 10° WSW 22:05:04 83° SSE 22:09:14 10° E
STARLINK-1084 3.5 22:01:26 10° WNW 22:05:34 71° SSW 22:08:43 17° ESE
Cosmos 1842 3.3 22:05:25 29° S 22:07:14 66° E 22:11:08 10° NNE
STARLINK-1202 3.9 22:04:21 14° SW 22:07:33 42° SSE 22:11:29 10° E
OPS 6432 4.2 22:06:28 10° NW 22:09:31 77° SW 22:11:02 31° SE
STARLINK-1254 3.5 22:05:54 10° WSW 22:10:03 85° S 22:14:13 10° E
Cosmos 1943 Rocket 2.7 22:07:35 24° SSE 22:10:27 42° ESE 22:15:42 10° NE
Cosmos 1025 Rocket 4.1 22:08:42 22° SE 22:10:32 32° E 22:14:21 10° NNE
STARLINK-1098 3.5 22:06:26 10° WNW 22:10:33 68° SSW 22:13:31 18° ESE
Cosmos 1331 Rocket 3.9 22:07:06 20° SSW 22:10:43 79° ESE 22:15:56 10° NNE
SL-8 R/B 3.9 22:09:18 10° W 22:13:56 49° S 22:17:56 14° ESE
STARLINK-1231 3.5 22:10:54 10° WSW 22:15:03 87° S 22:19:13 10° E
Cosmos 1302 Rocket 4.4 22:12:14 25° S 22:15:04 49° ESE 22:20:10 10° NNE
STARLINK-1123 3.5 22:11:24 10° WNW 22:15:31 65° SSW 22:18:17 20° ESE
Meteor 2-13 Rocket 4.5 22:12:50 22° S 22:16:57 77° E 22:23:08 10° NNE
STARLINK-1246 3.8 22:13:53 13° SW 22:17:27 47° SSE 22:21:27 10° ENE
Cosmos 2278 Rocket 3.6 22:12:25 10° WSW 22:17:41 38° NW 22:23:00 10° NNE
STARLINK-1232 3.5 22:15:52 10° WSW 22:20:02 89° SSE 22:24:12 10° E
STARLINK-1097 3.6 22:16:23 10° WNW 22:20:29 62° SSW 22:23:04 21° SE
Terra 3.9 22:17:54 10° SW 22:21:06 18° W 22:24:19 10° NW
ALOS 2 2.6 22:19:22 28° SSE 22:21:40 86° ENE 22:26:06 10° NNW
ATLAS 5 CENTAUR R/B 3.2 22:23:07 16° ESE 22:23:07 16° ESE 22:23:52 10° E
STARLINK-1224 3.7 22:18:39 12° SW 22:22:25 50° SSE 22:26:26 10° ENE
Lacrosse 5 3.3 22:18:41 10° WNW 22:22:33 22° SW 22:24:01 20° SSW
STARLINK-1228 3.1 22:19:27 10° W 22:22:47 80° N 22:26:07 10° E
S3M 4.1 22:17:44 10° N 22:23:53 68° ENE 22:27:54 23° SSE
Thor Agena Rocket 3.8 22:18:46 10° NNE 22:24:04 70° WNW 22:28:06 17° SSW
STARLINK-1208 3.5 22:20:50 10° W 22:25:00 90° N 22:29:10 10° E
STARLINK-1099 3.6 22:21:20 10° WNW 22:25:26 60° SSW 22:27:49 23° SE
STARLINK-1234 2.9 22:22:28 10° W 22:25:36 79° N 22:28:45 10° E
Cosmos 1536 Rocket 4.3 22:23:49 26° SE 22:25:42 39° E 22:29:46 10° NNE
Spot 4 4.4 22:23:24 23° SSW 22:26:09 50° W 22:30:54 10° NNW
Cosmos 1655 Rocket 4.4 22:22:34 23° SSE 22:26:21 51° E 22:32:22 10° NNE
STARLINK-1212 2.9 22:23:49 10° W 22:26:56 79° N 22:30:03 10° E
STARLINK-1225 3.7 22:23:26 10° SW 22:27:23 52° SSE 22:31:26 10° ENE
STARLINK-1105 2.9 22:24:18 10° W 22:27:25 79° N 22:30:31 10° E
STARLINK-1209 2.9 22:24:23 10° W 22:27:33 80° N 22:30:42 10° E
STARLINK-1247 2.9 22:25:12 10° W 22:28:19 79° N 22:31:27 10° E
STARLINK-1227 2.9 22:25:40 10° W 22:28:47 79° N 22:31:53 10° E
STARLINK-1226 2.9 22:26:32 10° W 22:29:39 79° N 22:32:46 10° E
STARLINK-1271 3.6 22:25:50 10° W 22:30:00 88° N 22:34:10 10° E
STARLINK-1104 3.7 22:26:20 10° WNW 22:30:25 57° SSW 22:32:37 25° SE
STARLINK-1215 2.9 22:27:28 10° W 22:30:36 79° N 22:33:44 10° E
SL-4 R/B 1.5 22:31:54 36° W 22:31:54 36° W 22:33:53 10° NNW
STARLINK-1230 3.6 22:28:17 10° SW 22:32:20 55° SSE 22:36:25 10° ENE
STARLINK-1217 2.9 22:29:14 10° W 22:32:22 79° N 22:35:29 10° E
Cosmos 1544 Rocket 3.6 22:28:12 10° NNW 22:32:31 70° W 22:34:36 29° S
BREEZE-M DEB (TANK) 3.1 22:22:39 10° WSW 22:32:33 55° S 22:35:43 10° E
GEOS 3 Rocket 4.3 22:27:41 10° ESE 22:32:46 55° NE 22:37:58 10° NW
STARLINK-1229 2.9 22:30:09 10° W 22:33:17 79° N 22:36:24 10° E
STARLINK-1270 2.9 22:31:01 10° W 22:34:09 79° N 22:37:17 10° E
Cosmos 1726 2.8 22:31:11 10° N 22:34:45 44° ENE 22:36:25 26° SE
STARLINK-1154 3.6 22:30:49 10° W 22:34:59 87° N 22:39:09 10° E
STARLINK-1144 3.7 22:31:20 10° WNW 22:35:23 54° SSW 22:37:24 27° SE
STARLINK-1189 2.9 22:32:51 10° W 22:35:59 79° N 22:39:07 10° E
STARLINK-1188 2.9 22:33:44 10° W 22:36:52 79° N 22:40:00 10° E
STARLINK-1243 3.6 22:33:14 10° SW 22:37:18 58° SSE 22:41:24 10° ENE
STARLINK-1235 2.9 22:34:27 10° W 22:37:34 81° N 22:40:40 10° E
STARLINK-1187 2.9 22:34:52 10° W 22:37:58 80° N 22:41:04 10° E
SL-27 R/B 2.5 22:34:47 10° NNW 22:38:24 67° WSW 22:39:37 38° S
STARLINK-1191 2.9 22:36:13 10° W 22:39:20 79° N 22:42:26 10° E
STARLINK-1197 3.6 22:35:48 10° W 22:39:57 86° N 22:44:08 10° E
STARLINK-1221 2.9 22:37:06 10° W 22:40:12 79° N 22:43:20 10° E
STARLINK-1103 3.7 22:36:18 10° WNW 22:40:21 51° SSW 22:42:11 28° SE
STARLINK-1222 2.9 22:37:59 10° W 22:41:05 79° N 22:44:12 10° E
Cosmos 1553 Rocket 4.1 22:35:14 10° NNW 22:41:36 74° W 22:45:31 24° S
Cosmos 1953 2.5 22:37:55 10° N 22:41:55 63° ENE 22:43:45 30° SSE
STARLINK-1214 2.9 22:38:54 10° W 22:42:01 80° N 22:45:07 10° E
STARLINK-1236 3.6 22:38:11 10° WSW 22:42:16 61° SSE 22:46:23 10° ENE
Abrixas rocket 4.4 22:40:50 10° WSW 22:41:15 13° WSW 22:41:15 13° WSW
Cosmos 1340 Rocket 3.4 22:39:33 10° N 22:43:30 51° ENE 22:45:33 25° SE
Cosmos 1833 4.3 22:38:02 10° NNW 22:43:43 76° ENE 22:47:49 19° SE
STARLINK-1198 3.6 22:40:45 10° W 22:44:55 85° N 22:49:05 10° E
STARLINK-1101 3.8 22:41:17 10° WNW 22:45:18 49° SSW 22:46:57 30° SSE
Cosmos 1461 3.0 22:43:04 17° SW 22:46:20 78° NW 22:50:47 10° NE
Cosmos 1271 Rocket 2.7 22:46:32 35° S 22:48:03 73° E 22:51:57 10° NNE
USA 215 4.0 22:45:48 23° S 22:48:51 34° SW 22:54:44 10° WNW
Aureole 3 Rocket 4.1 22:44:58 10° NNW 22:49:53 58° W 22:54:05 23° SSW
STARLINK-1199 3.6 22:45:46 10° W 22:49:56 84° N 22:54:06 10° E
STARLINK-1102 3.9 22:46:17 10° W 22:50:17 46° SSW 22:51:45 31° SSE
Cosmos 1758 3.6 22:46:22 10° NNW 22:50:21 59° W 22:52:04 31° SSW
Cosmos 2026 Rocket 4.4 22:45:53 18° SSW 22:50:37 58° WNW 22:56:54 10° N
COSMOS 2487 3.7 22:48:30 10° N 22:51:46 36° ENE 22:53:49 19° ESE
STARLINK-1269 3.5 22:48:05 10° WSW 22:52:12 66° SSE 22:56:20 10° ENE
STARLINK-1210 3.6 22:50:44 10° W 22:54:54 83° N 22:59:04 10° E
Cosmos 1656 Rocket 4.5 22:52:30 24° SSE 22:55:08 37° ESE 23:00:13 10° NE
STARLINK-1111 3.9 22:51:17 10° W 22:55:14 44° SSW 22:56:31 33° SSE
Cosmos 1707 2.7 22:53:56 34° S 22:55:32 82° E 22:59:27 10° NNE
STARLINK-1200 3.5 22:53:04 10° WSW 22:57:12 69° SSE 23:01:20 10° ENE
Cosmos 1606 Rocket 4.4 22:54:59 10° N 22:59:08 43° ENE 23:01:42 21° SE
NOSS 2-2 (D) 3.1 22:57:13 25° SW 22:59:18 90° SE 23:03:35 10° NE
STARLINK-1219 3.6 22:55:43 10° W 22:59:53 83° N 23:04:03 10° E
Meteor 1-16 Rocket 4.2 22:54:20 10° NNW 23:00:01 79° ENE 23:03:23 25° SSE
STARLINK-1073 4.0 22:56:17 10° W 23:00:12 41° SSW 23:01:19 33° S
NOSS 3-2 (C) 4.0 22:52:55 10° NW 23:00:15 72° SW 23:07:07 16° SSE
YAOGAN 11 4.0 22:58:51 30° SSE 23:01:01 84° WSW 23:05:23 10° NNW
STARLINK-1192 3.5 22:58:02 10° WSW 23:02:10 72° SSE 23:06:19 10° ENE
Cosmos 2297 Rocket 4.4 22:58:11 10° NNW 23:02:45 24° NE 23:07:17 10° E
Cosmos 1975 Rocket 4.4 23:00:54 15° SW 23:04:01 33° WNW 23:08:04 10° N
Cosmos 2292 Rocket 3.6 23:02:09 30° SSE 23:04:05 58° E 23:07:39 10° NNE
STARLINK-1211 3.6 23:00:41 10° W 23:04:51 82° N 23:09:01 10° E
STARLINK-1121 4.1 23:01:15 10° W 23:05:07 39° SSW 23:06:04 34° S
STARLINK-1244 3.5 23:02:59 10° WSW 23:07:07 74° SSE 23:11:16 10° ENE
STARLINK-1245 3.6 23:05:42 10° W 23:09:51 82° N 23:14:01 10° E
STARLINK-1106 4.2 23:06:15 10° W 23:10:04 37° SSW 23:10:51 34° S
Meteor 2-10 4.0 23:06:11 10° NNW 23:11:15 66° W 23:13:54 28° S
STARLINK-1138 3.5 23:07:57 10° WSW 23:12:06 77° SSE 23:16:15 10° ENE
Aureole 3 2.9 23:08:46 10° N 23:12:44 86° E 23:13:55 38° SSE
ERBS 3.3 23:09:33 10° W 23:12:46 47° NNW 23:16:02 10° ENE
NOSS 3-4 (A) 4.2 23:10:06 24° SSE 23:12:52 36° ESE 23:18:36 10° NE
NOSS 3-4 (C) 4.2 23:10:13 24° SSE 23:12:59 36° ESE 23:18:42 10° NE
Cosmos 1242 Rocket 3.4 23:11:36 24° SW 23:13:20 42° WNW 23:16:53 10° N
SL-4 R/B 4.0 23:13:39 17° SE 23:13:39 17° SE 23:16:41 10° E
PSLV R/B 4.4 23:09:29 10° NNE 23:13:55 42° E 23:16:05 25° SSE
STARLINK-1203 3.5 23:10:19 10° WSW 23:14:31 79° SSE 23:18:44 10° ENE
STARLINK-1233 3.6 23:10:40 10° W 23:14:49 82° N 23:19:00 10° E
STARLINK-1112 4.2 23:11:16 10° W 23:15:03 35° SSW 23:15:39 33° SSW
ATLAS 3B R/B 2.8 23:09:42 10° NW 23:16:29 79° NE 23:23:28 10° SE
STARLINK-1143 3.5 23:12:55 10° WSW 23:17:04 79° SSE 23:21:14 10° ENE
NOSS 2-2 (E) 3.9 23:15:11 14° WSW 23:18:20 58° NW 23:22:48 10° NE
SL-16 R/B 4.0 23:13:11 10° ESE 23:18:32 32° ENE 23:23:55 10° N
Cosmos 1470 4.2 23:15:51 10° NNW 23:19:07 26° W 23:20:37 20° SW
STARLINK-1204 3.6 23:15:40 10° W 23:19:49 82° N 23:23:59 10° E
Cosmos 2266 Rocket 3.9 23:16:09 25° S 23:19:57 87° E 23:26:03 10° N
Cosmos 1674 3.3 23:18:32 29° SSE 23:19:59 45° E 23:23:36 10° NNE
STARLINK-1128 4.3 23:16:16 10° W 23:20:00 33° SW 23:20:26 32° SSW
CENTAUR R/B 3.2 23:12:27 10° NW 23:20:17 67° SW 23:27:41 15° SSE
SeaSat 1 4.1 23:17:19 10° NNE 23:21:38 31° NW 23:25:55 10° WSW
ATLAS CENTAUR R/B 3.1 23:20:47 18° SE 23:21:46 19° ESE 23:24:46 10° ENE
Cosmos 1503 Rocket 4.2 23:16:47 10° NNW 23:21:59 61° WSW 23:24:51 27° S
STARLINK-1241 3.5 23:17:53 10° WSW 23:22:03 82° SSE 23:26:13 10° E
STARLINK-1238 3.6 23:20:37 10° W 23:24:47 83° N 23:28:57 10° E
STARLINK-1113 4.4 23:21:16 10° W 23:24:57 31° SW 23:25:12 31° SSW
STARLINK-1239 3.5 23:22:52 10° WSW 23:27:01 84° SSE 23:31:11 10° E
STARLINK-1201 3.6 23:25:37 10° W 23:29:47 83° N 23:33:57 10° E
STARLINK-1119 4.5 23:26:16 10° W 23:29:53 29° SW 23:29:59 29° SSW
BREEZE-M DEB 4.3 23:26:51 10° WSW 23:30:59 71° S 23:47:28 10° E
Cosmos 1867 3.5 23:26:31 10° NW 23:31:59 74° SW 23:36:08 18° SSE
BREEZE-M DEB (TANK) 3.5 23:28:42 10° W 23:32:00 40° SSW 23:37:06 10° SE
STARLINK-1240 3.5 23:27:51 10° WSW 23:32:01 86° SSE 23:36:11 10° E
STARLINK-1206 3.6 23:30:36 10° W 23:34:46 84° N 23:38:56 10° E
Helios 1A 4.1 23:33:57 23° SW 23:35:34 31° W 23:39:19 10° NNW
Cosmos 968 Rocket 4.3 23:31:03 10° NW 23:35:45 36° WSW 23:38:01 24° SSW
Cosmos 1354 Rocket 4.3 23:31:43 10° NNW 23:36:51 52° WSW 23:39:37 26° S
STARLINK-1216 3.5 23:32:49 10° WSW 23:36:59 88° SSE 23:41:09 10° E
Cosmos 1908 3.1 23:34:35 10° NNW 23:38:26 77° W 23:40:02 33° S
Cosmos 2227 Rocket 4.0 23:33:38 10° NNW 23:38:42 32° NE 23:43:45 10° ESE
STARLINK-1205 3.6 23:35:35 10° W 23:39:45 85° N 23:43:55 10° E
Cosmos 1892 Rocket 4.2 23:37:41 23° SSE 23:40:02 46° E 23:44:15 10° NNE
NOSS 2-2 (C) 4.2 23:37:49 11° WSW 23:41:13 48° NNW 23:45:32 10° NE
ATLAS 2AS CENTAUR R/B 3.2 23:35:54 21° SSW 23:41:24 62° SE 23:49:10 10° NE
STARLINK-1237 3.5 23:37:49 10° W 23:41:59 90° SSE 23:46:09 10° E
Meteor 1-24 Rocket 4.4 23:39:53 19° SSE 23:43:15 43° E 23:48:20 10° NNE
Cosmos 2369 Rocket 2.5 23:38:58 17° SW 23:43:20 65° NW 23:48:59 10° NNE
STARLINK-1218 3.6 23:40:33 10° W 23:44:43 86° N 23:48:53 10° E
CZ-2D R/B 3.9 23:40:52 10° NE 23:44:51 21° E 23:48:47 10° SE
RESURS DK-1 4.3 23:43:24 15° SE 23:45:04 19° ESE 23:48:01 10° ENE
STARLINK-1202 3.6 23:42:48 10° W 23:46:58 89° N 23:51:08 10° E
Cosmos 1726 Rocket 3.4 23:43:02 10° NNW 23:47:23 83° W 23:49:41 27° S
Cosmos 1025 Rocket 4.3 23:45:34 18° WSW 23:48:07 32° WNW 23:52:00 10° N
Cosmos 2315 Rocket 4.1 23:42:08 10° NNW 23:48:16 64° W 23:52:12 23° SSW
STARLINK-1254 3.6 23:45:33 10° W 23:49:43 87° N 23:53:53 10° E
Helios 1B rocket 2.4 23:46:38 10° NNE 23:50:47 88° W 23:52:51 29° SSW
Cosmos 1943 Rocket 3.1 23:49:04 11° WSW 23:54:14 44° NW 23:59:36 10° NNE
STARLINK-1231 3.6 23:50:33 10° W 23:54:43 88° N 23:58:53 10° E
Resurs 1-4 Rocket 3.7 23:50:35 10° NE 23:55:00 26° E 23:59:06 11° SSE
